Flag for Martinique Weather past 2 weeks in Fort-de-France, Martinique

Now
75 °F

Passing clouds.


Feels Like: 74 °F
Forecast: 79 / 87 °F
Wind: 3 mph from Northeast

Location: Le Lamentin Airport

Current Time: Sep 22, 2014 at 1:17:49 AM

Latest Report: Sep 22, 2014 at 1:00 AM


Visibility: N/A

Pressure: 29.95 "Hg

Humidity: 94%

Dew point: 73 °F

Location of Fort-de-FranceLocation

Historic Weather in Fort-de-France — Graph

°F

Fort-de-France temperature yesterday

Maximum temperature yesterday: 86 °F (at 3:00 PM)
Minimum temperature yesterday: 75 °F (at 11:30 AM)
Average temperature yesterday: 79 °F

Past Weeks' High & Low Weather Summary

 TemperatureHumidityPressure
High90 °F (Sep 11, 11:00 AM)100% (Sep 15, 5:30 AM)30.04 "Hg (Sep 15, 5:30 AM)
Low75 °F (Sep 15, 5:30 AM)55% (Sep 9, 11:00 AM)29.86 "Hg (Sep 11, 3:30 PM)
Average82 °F78%29.95 "Hg
* Reported Midnight between Sep 6 and Sep 7 — Midnight between Sep 21 and Sep 22, Fort-de-France, Weather by CustomWeather, © 2014

Note: Actual official high and low records may vary slightly from our data, if they occured in-between our weather recording intervals... More about our weather records

Advertising

Fort-de-France weather history for previous 24 hours

 ConditionsComfort  
Time TempWeatherWind HumidityBarometerVisibility
12:00 AM
Sep 22
75 °FMild.3 mph94%29.98 "HgN/A
11:30 PM
Sep 21
75 °FPartly cloudy.3 mph94%29.98 "HgN/A
11:00 PM75 °FClear.2 mph94%30.01 "HgN/A
10:30 PM75 °FClear.2 mph94%30.01 "HgN/A
10:00 PM75 °FClear.3 mph94%30.01 "HgN/A
9:30 PM75 °FClear.3 mph94%29.98 "HgN/A
9:00 PM75 °FLight rain. Clear.3 mph94%29.98 "HgN/A
8:00 PM75 °FLight rain. Overcast.2 mph94%29.98 "HgN/A
7:30 PM77 °FLight rain. Passing clouds.3 mph89%29.98 "HgN/A
7:00 PM77 °FMostly cloudy.6 mph83%29.95 "HgN/A
6:30 PM81 °FPartly cloudy.6 mph84%29.95 "HgN/A
6:00 PM82 °FMostly cloudy.3 mph84%29.95 "HgN/A
5:30 PM82 °FWarm.3 mph84%29.92 "HgN/A
5:00 PM82 °FWarm.5 mph79%29.92 "HgN/A
4:30 PM84 °FClear.5 mph74%29.92 "HgN/A
4:00 PM84 °FClear.6 mph74%29.92 "HgN/A
3:30 PM84 °FPartly sunny.10 mph74%29.92 "HgN/A
3:00 PM86 °FBroken clouds.10 mph70%29.89 "HgN/A
2:30 PM84 °FClear.7 mph79%29.89 "HgN/A
2:00 PM82 °FClear.7 mph84%29.92 "HgN/A
1:30 PM79 °FClear.5 mph89%29.92 "HgN/A
1:00 PM77 °FWarm.5 mph94%29.95 "HgN/A
12:30 PM77 °FScattered clouds.3 mph94%29.98 "HgN/A
12:00 PM75 °FLight rain. Mostly cloudy.3 mph94%29.98 "HgN/A
11:30 AM75 °FLight rain. Fog.2 mph94%30.01 "Hg2 mi
11:00 AM77 °FLight rain. More clouds than sun.3 mph89%30.01 "HgN/A
10:30 AM79 °FBroken clouds.3 mph94%30.01 "HgN/A
10:00 AM81 °FLight rain. Mostly cloudy.5 mph89%30.01 "HgN/A
9:30 AM81 °FLight rain. Mostly cloudy.6 mph89%30.01 "HgN/A
9:00 AM84 °FPartly sunny.6 mph79%29.98 "HgN/A
8:30 AM84 °FPartly sunny.5 mph84%29.98 "HgN/A
8:00 AM82 °FPartly sunny.2 mph89%29.95 "HgN/A
7:30 AM81 °FBroken clouds.2 mph94%29.95 "HgN/A
7:00 AM79 °FPartly sunny.3 mph94%29.95 "HgN/A
6:30 AM79 °FPartly sunny.3 mph94%29.92 "HgN/A
6:00 AM79 °FPartly sunny.5 mph94%29.92 "HgN/A
5:30 AM79 °FPassing clouds.5 mph94%29.92 "HgN/A
5:00 AM79 °FPartly cloudy.3 mph94%29.89 "HgN/A
4:30 AM79 °FPassing clouds.2 mph94%29.89 "HgN/A
4:00 AM79 °FPartly cloudy.3 mph94%29.89 "HgN/A
3:30 AM79 °FPassing clouds.No wind89%29.89 "HgN/A
3:00 AM79 °FWarm.2 mph89%29.89 "HgN/A
2:30 AM81 °FMostly cloudy.6 mph89%29.89 "HgN/A
2:00 AM81 °FPartly cloudy.2 mph89%29.89 "HgN/A
1:30 AM81 °FPassing clouds.6 mph89%29.89 "HgN/A
1:00 AM81 °FClear.7 mph89%29.92 "HgN/A
Weather by CustomWeather, © 2014

See weather overviewHow to use our weather pages